Erie, PA

1:24 PM EST on November 22, 2019 (GMT -0500)
Erie International

Weather History for KERI - September, 2019

Change the Weather History Date:

Monday, September 2, 2019

  Actual Average Record
Temperature  
Mean Temperature 70 °F 68 °F  
Max Temperature 73 °F 76 °F 93 °F (1953)
Min Temperature 66 °F 60 °F 46 °F (1970)
Degree Days  
Heating Degree Days 0 1  
Month to date heating degree days 0 2  
Since 1 July heating degree days 1 20  
Cooling Degree Days 5 4  
Month to date cooling degree days 11 8  
Year to date cooling degree days 701 566  
Growing Degree Days 20 (Base 50)    
Moisture  
Dew Point 62 °F    
Average Humidity 80    
Maximum Humidity 94    
Minimum Humidity 64    
Precipitation  
Precipitation 0.32 in 0.13 in 1.38 in (1980)
Month to date precipitation 1.25 0.26  
Year to date precipitation 27.57 26.09  
Snow  
Snow 0.00 in 0.00 in - ()
Month to date snowfall 0.0 0.0  
Since 1 July snowfall 0.0 0.0  
Since 1 September snowfall 0.0 0.0  
Snow Depth 0.00 in    
Sea Level Pressure  
Sea Level Pressure 30.04 in    
Wind  
Wind Speed 7 mph ()    
Max Wind Speed 15 mph    
Max Gust Speed 18 mph    
Visibility 8.6 miles    
Events Rain    
T = Trace of Precipitation, MM = Missing Value Source: Averaged Metar Reports

Daily Weather History Graph

Daily Weather History Graph

Search for Another Location

Airport or City:

Astronomy

Sep. 02, 2019 Rise Set
Actual Time 6:47 AM EDT 7:53 PM EDT
Civil Twilight 6:18 AM EDT 8:21 PM EDT
Nautical Twilight 5:43 AM EDT 8:55 PM EDT
Astronomical Twilight 5:07 AM EDT 9:31 PM EDT
Moon 10:31 AM EDT (9/2) 10:09 PM EDT (9/2)
Length of Visible Light 14h 03m
Length of Day
13h 06m
Waxing Crescent, 15% of the Moon is Illuminated
Sep 2
Waxing Crescent
Sep 5
First Quarter
Sep 14
Full
Sep 21
Last Quarter
Sep 28
New

Hourly Weather History & Observations

Time (EDT) Temp. Dew Point Humidity Pressure Visibility Wind Dir Wind Speed Gust Speed Precip Events Conditions
12:51 AM 69.1 °F 64.0 °F 84% 30.03 in 10.0 mi South 15.0 mph - 0.00 in   Overcast
1:51 AM 66.9 °F 63.0 °F 87% 30.02 in 10.0 mi South 8.1 mph - 0.01 in   Overcast
2:51 AM 68.0 °F 63.0 °F 84% 30.02 in 10.0 mi South 10.4 mph - N/A   Mostly Cloudy
3:51 AM 66.9 °F 64.0 °F 90% 30.00 in 10.0 mi SSW 6.9 mph - 0.05 in Rain Light Rain
4:51 AM 66.9 °F 64.0 °F 90% 30.01 in 10.0 mi SW 6.9 mph - 0.00 in   Overcast
5:51 AM 66.9 °F 64.0 °F 90% 30.01 in 10.0 mi SSW 8.1 mph - N/A   Overcast
6:51 AM 66.9 °F 64.0 °F 90% 30.01 in 10.0 mi South 8.1 mph - N/A   Overcast
7:10 AM 66.9 °F 64.0 °F 90% 30.03 in 1.2 mi SSW 8.1 mph - 0.02 in Rain Rain
7:18 AM 66.9 °F 64.0 °F 90% 30.03 in 0.8 mi SSW 5.8 mph - 0.14 in Rain Rain
7:22 AM 66.9 °F 64.0 °F 90% 30.03 in 2.5 mi SSW 8.1 mph - 0.15 in Rain Light Rain
7:25 AM 66.9 °F 64.0 °F 90% 30.03 in 1.5 mi SSW 5.8 mph - 0.15 in Rain Light Rain
7:34 AM 66.9 °F 64.0 °F 90% 30.03 in 2.5 mi West 3.5 mph - 0.23 in Rain Light Rain
7:46 AM 66.2 °F 64.4 °F 94% 30.03 in 2.0 mi SW 4.6 mph - 0.25 in Rain Light Rain
7:51 AM 66.9 °F 64.0 °F 90% 30.03 in 4.0 mi SW 8.1 mph - 0.26 in Rain Light Rain
8:51 AM 69.1 °F 63.0 °F 81% 30.04 in 10.0 mi WNW 9.2 mph - 0.00 in   Overcast
9:21 AM 69.1 °F 63.0 °F 81% 30.05 in 10.0 mi NW 8.1 mph - N/A   Overcast
9:51 AM 68.0 °F 62.1 °F 81% 30.04 in 10.0 mi NW 9.2 mph - N/A   Overcast
10:00 AM 69.1 °F 62.1 °F 78% 30.05 in 10.0 mi NNW 6.9 mph - N/A   Overcast
10:10 AM 69.1 °F 62.1 °F 78% 30.05 in 10.0 mi NNW 5.8 mph - N/A   Overcast
10:33 AM 69.1 °F 62.1 °F 78% 30.05 in 10.0 mi NNW 3.5 mph - N/A   Overcast
10:48 AM 69.8 °F 60.8 °F 73% 30.06 in 10.0 mi NNW 5.8 mph - N/A   Overcast
10:51 AM 69.1 °F 61.0 °F 75% 30.05 in 10.0 mi NW 6.9 mph - N/A   Overcast
11:51 AM 70.0 °F 60.1 °F 71% 30.06 in 10.0 mi NNW 5.8 mph - N/A   Overcast
12:11 PM 71.1 °F 60.1 °F 68% 30.07 in 10.0 mi WNW 4.6 mph - N/A   Mostly Cloudy
12:51 PM 71.1 °F 61.0 °F 70% 30.05 in 10.0 mi NW 5.8 mph - N/A   Mostly Cloudy
1:38 PM 72.0 °F 61.0 °F 68% 30.06 in 10.0 mi WNW 6.9 mph - N/A   Overcast
1:51 PM 71.1 °F 60.1 °F 68% 30.06 in 10.0 mi West 5.8 mph - N/A   Overcast
2:01 PM 72.0 °F 61.0 °F 68% 30.06 in 10.0 mi Variable 3.5 mph - N/A   Mostly Cloudy
2:37 PM 73.0 °F 62.1 °F 68% 30.05 in 10.0 mi WNW 10.4 mph - N/A   Scattered Clouds
2:51 PM 73.9 °F 62.1 °F 66% 30.04 in 10.0 mi West 10.4 mph - N/A   Partly Cloudy
3:51 PM 73.9 °F 61.0 °F 64% 30.04 in 10.0 mi WNW 11.5 mph - N/A   Clear
4:51 PM 73.0 °F 62.1 °F 68% 30.04 in 10.0 mi West 9.2 mph - N/A   Clear
5:51 PM 72.0 °F 62.1 °F 71% 30.02 in 10.0 mi SW 10.4 mph - N/A   Clear
6:51 PM 71.1 °F 62.1 °F 73% 30.04 in 10.0 mi WSW 4.6 mph - N/A   Clear
7:51 PM 68.0 °F 62.1 °F 81% 30.05 in 10.0 mi SSW 4.6 mph - N/A   Partly Cloudy
8:51 PM 68.0 °F 62.1 °F 81% 30.04 in 10.0 mi SSW 3.5 mph - N/A   Mostly Cloudy
9:51 PM 68.0 °F 62.1 °F 81% 30.06 in 10.0 mi SSW 3.5 mph - N/A   Overcast
10:51 PM 68.0 °F 62.1 °F 81% 30.07 in 10.0 mi South 4.6 mph - N/A   Overcast
11:51 PM 68.0 °F 62.1 °F 81% 30.06 in 10.0 mi South 5.8 mph - N/A   Overcast